Location: Decatur(IL)
(39.8400°N, 88.9550°W)
Time: 10:31:44
(UTC-06:00)

Cosmos 1953 - Visible Passes

Search period start: 20 December 2014 00:00
Search period end: 30 December 2014 00:00
Orbit: 547 x 568 km, 82.5° (Epoch: 19 December)

Date Brightness Start Highest point End Pass type
(mag) Time Alt. Az. Time Alt. Az. Time Alt. Az.
20 Dec 5.4 06:14:57 10° ESE 06:17:17 15° E 06:19:38 10° NE visible
20 Dec 2.9 17:50:59 10° N 17:54:40 34° ENE 17:58:20 10° SE visible
20 Dec 5.3 19:28:35 10° NW 19:30:55 15° W 19:33:15 10° WSW visible
21 Dec 5.3 06:12:37 10° SE 06:15:19 18° E 06:18:02 10° NE visible
21 Dec 2.7 17:48:58 10° N 17:52:46 40° ENE 17:56:33 10° SSE visible
21 Dec 5.5 19:27:05 10° WNW 19:28:56 13° W 19:30:47 10° WSW visible
22 Dec 5.2 06:10:21 10° SE 06:13:21 20° E 06:16:21 10° NE visible
22 Dec 2.5 17:46:58 10° N 17:50:52 48° E 17:54:44 10° SSE visible
22 Dec 5.7 19:25:50 10° WNW 19:26:56 11° W 19:28:02 10° W visible
23 Dec 4.9 06:08:07 10° SE 06:11:22 24° E 06:14:37 10° NE visible
23 Dec 2.3 17:44:58 10° N 17:48:56 57° E 17:52:52 10° SSE visible
24 Dec 4.6 06:05:56 10° SSE 06:09:23 28° E 06:12:49 10° NNE visible
24 Dec 2.2 17:42:59 10° N 17:46:59 68° E 17:50:58 10° SSE visible
25 Dec 4.3 06:03:47 10° SSE 06:07:23 32° E 06:10:59 10° NNE visible
25 Dec 2.2 17:41:00 10° N 17:45:02 81° E 17:49:02 10° S visible
26 Dec 3.9 06:01:40 10° SSE 06:05:23 38° E 06:09:07 10° NNE visible
26 Dec 2.3 17:39:01 10° N 17:43:03 85° W 17:47:04 10° S visible
27 Dec 3.6 05:59:33 10° SSE 06:03:23 44° E 06:07:13 10° NNE visible
27 Dec 2.6 17:37:03 10° NNW 17:41:04 72° W 17:45:03 10° S visible
28 Dec 3.2 05:57:28 10° S 06:01:23 53° E 06:05:18 10° NNE visible
28 Dec 2.9 17:35:05 10° NNW 17:39:03 60° W 17:43:01 10° S visible
29 Dec 2.8 05:55:24 10° S 05:59:22 63° E 06:03:20 10° NNE visible
29 Dec 3.3 17:33:08 10° NNW 17:37:02 50° W 17:40:56 10° S visible
